Hof Plauen, Germany

10:56 PM CEST on September 19, 2017 (GMT +0200)
Hof-Plauen

Weather History for EDQM - December, 2013

Change the Weather History Date:

Sunday, December 15, 2013

  Actual Average Record
Temperature  
Mean Temperature 33 °F -  
Max Temperature 35 °F 31 °F 46 °F (2006)
Min Temperature 31 °F 25 °F 17 °F (2001)
Degree Days  
Heating Degree Days 32    
Moisture  
Dew Point 31 °F    
Average Humidity 89    
Maximum Humidity 100    
Minimum Humidity 77    
Precipitation  
Precipitation 0.00 in - - ()
Sea Level Pressure  
Sea Level Pressure 30.43 in    
Wind  
Wind Speed 11 mph ()    
Max Wind Speed 20 mph    
Max Gust Speed 25 mph    
Visibility 5.9 miles    
Events Fog    
Averages and records for this station are not official NWS values.
T = Trace of Precipitation, MM = Missing Value Source: Averaged Metar Reports

Daily Weather History Graph

Daily Weather History Graph

Search for Another Location

Airport or City:

Trip Planner

Search our weather history database for the weather conditions in past years. The results will help you decide how hot, cold, wet, or windy it might be!

Date:

Astronomy

Dec. 15, 2013 Rise Set
Actual Time 8:05 AM CET 4:09 PM CET
Civil Twilight 7:27 AM CET 4:48 PM CET
Nautical Twilight 6:45 AM CET 5:29 PM CET
Astronomical Twilight 6:05 AM CET 6:09 PM CET
Moon 3:09 PM CET (12/15) 5:58 AM CET (12/15)
Length of Visible Light 9h 20m
Length of Day
8h 03m
Waxing Gibbous, 97% of the Moon is Illuminated
Dec 15
Waxing Gibbous
Dec 17
Full
Dec 25
Last Quarter
Jan 1
New
Jan 8
First Quarter

Hourly Weather History & Observations

Time (CET) Temp. Windchill Dew Point Humidity Pressure Visibility Wind Dir Wind Speed Gust Speed Precip Events Conditions
12:00 AM 32 °F - 32 °F 100% 30.50 in 1 mi SW 6.7 mph - - Fog Fog
12:20 AM 32.0 °F 24.2 °F 32.0 °F 100% 30.42 in 0.1 mi SSW 9.2 mph - N/A Fog Fog
12:50 AM 33.8 °F 27.7 °F 32.0 °F 93% 30.42 in 0.2 mi SSW 6.9 mph - N/A Fog Fog
1:00 AM 33 °F - 32 °F 96% 30.49 in 0 mi SW 6.7 mph - - Fog Fog
1:20 AM 33.8 °F 25.8 °F 32.0 °F 93% 30.42 in 0.1 mi SSW 10.4 mph - N/A Fog Fog
1:50 AM 33.8 °F 24.8 °F 32.0 °F 93% 30.42 in 0.2 mi SSW 12.7 mph - N/A Fog Fog
2:00 AM 33 °F - 33 °F 97% 30.49 in 1 mi SW 8.9 mph - - Fog Fog
2:20 AM 33.8 °F 23.9 °F 32.0 °F 93% 30.42 in 0.3 mi SW 15.0 mph - N/A Fog Fog
2:50 AM 32.0 °F 21.6 °F 32.0 °F 100% 30.39 in 1.1 mi SSW 15.0 mph - N/A   Overcast
3:00 AM 33 °F - 33 °F 97% 30.48 in 5 mi SW 8.9 mph - -  
3:20 AM 33.8 °F 23.9 °F 32.0 °F 93% 30.39 in 2.5 mi SW 15.0 mph - N/A   Overcast
3:50 AM 33.8 °F 23.5 °F 32.0 °F 93% 30.39 in 3.7 mi SW 16.1 mph - N/A   Overcast
4:20 AM 32.0 °F 22.1 °F 32.0 °F 100% 30.39 in 3.1 mi SSW 13.8 mph 25.3 mph N/A   Overcast
4:50 AM 32.0 °F 21.2 °F 30.2 °F 93% 30.39 in 1.2 mi SW 16.1 mph - N/A   Overcast
5:00 AM 32 °F - 32 °F 98% 30.47 in 5 mi SW 13.4 mph - -   Overcast
5:20 AM 32.0 °F 20.5 °F 32.0 °F 100% 30.39 in 4.3 mi SW 18.4 mph - N/A   Overcast
5:50 AM 32.0 °F 21.2 °F 32.0 °F 100% 30.39 in 4.3 mi SW 16.1 mph - N/A   Overcast
6:00 AM 32 °F - 31 °F 97% 30.49 in 6 mi WSW 11.2 mph - -   Overcast
6:20 AM 32.0 °F 21.6 °F 30.2 °F 93% 30.39 in 4.3 mi SW 15.0 mph - N/A   Overcast
6:50 AM 32.0 °F 23.0 °F 30.2 °F 93% 30.39 in 5.0 mi SW 11.5 mph - N/A   Overcast
7:00 AM 32 °F - 31 °F 95% 30.48 in 5 mi SW 6.7 mph - -   Partly Cloudy
7:20 AM 32.0 °F 22.1 °F 30.2 °F 93% 30.39 in 5.6 mi SSW 13.8 mph - N/A   Overcast
7:50 AM 32.0 °F 22.1 °F 30.2 °F 93% 30.39 in 6.2 mi SSW 13.8 mph - N/A   Overcast
8:00 AM 32 °F - 31 °F 93% 30.47 in 7 mi SW 11.2 mph - -   Overcast
8:20 AM 32.0 °F 22.1 °F 30.2 °F 93% 30.39 in 5.6 mi SSW 13.8 mph - N/A   Overcast
8:50 AM 32.0 °F 22.1 °F 30.2 °F 93% 30.39 in 3.1 mi SSW 13.8 mph - N/A   Overcast
9:00 AM 33 °F - 31 °F 91% 30.48 in 7 mi SW 8.9 mph - -   Overcast
9:20 AM 32.0 °F 23.0 °F 30.2 °F 93% 30.42 in 3.1 mi SSW 11.5 mph - N/A   Overcast
9:50 AM 33.8 °F 23.2 °F 32.0 °F 93% 30.39 in 5.6 mi SW 17.3 mph - N/A   Mostly Cloudy
10:20 AM 33.8 °F 22.5 °F 30.2 °F 87% 30.39 in 6.2 mi SW 19.6 mph - N/A   Mostly Cloudy
10:50 AM 33.8 °F 23.9 °F 30.2 °F 87% 30.42 in 6.2 mi SSW 15.0 mph - N/A   Mostly Cloudy
11:00 AM 34 °F - 31 °F 86% 30.48 in 12 mi SW 8.9 mph - -   Mostly Cloudy
11:20 AM 33.8 °F 23.5 °F 30.2 °F 87% 30.42 in 6.2 mi SSW 16.1 mph - N/A   Mostly Cloudy
11:50 AM 33.8 °F 24.3 °F 30.2 °F 87% 30.42 in 6.2 mi SW 13.8 mph - N/A   Mostly Cloudy
12:00 PM 34 °F - 31 °F 86% 30.47 in 11 mi SW 13.4 mph - -   Mostly Cloudy
12:20 PM 33.8 °F 23.9 °F 30.2 °F 87% 30.39 in 6.2 mi SSW 15.0 mph - N/A   Mostly Cloudy
12:50 PM 33.8 °F 24.8 °F 30.2 °F 87% 30.39 in - SSW 12.7 mph - N/A   Clear
1:00 PM 33 °F - 31 °F 88% 30.48 in 11 mi SSW 6.7 mph - -   Partly Cloudy
1:20 PM 33.8 °F 25.3 °F 30.2 °F 87% 30.39 in - SSW 11.5 mph - N/A   Clear
1:50 PM 33.8 °F 26.4 °F 30.2 °F 87% 30.42 in - SSW 9.2 mph - N/A   Clear
2:00 PM 34 °F - 31 °F 83% 30.49 in 11 mi South 4.5 mph - -   Mostly Cloudy
2:20 PM 35.6 °F 29.2 °F 32.0 °F 87% 30.42 in - SSW 8.1 mph - N/A   Clear
2:50 PM 33.8 °F 25.8 °F 30.2 °F 87% 30.39 in 6.2 mi SSW 10.4 mph - N/A   Scattered Clouds
3:00 PM 34 °F - 31 °F 82% 30.47 in 11 mi SW 8.9 mph - -   Mostly Cloudy
3:20 PM 33.8 °F 25.3 °F 30.2 °F 87% 30.39 in 6.2 mi SSW 11.5 mph - N/A   Overcast
3:50 PM 33.8 °F 25.3 °F 30.2 °F 87% 30.39 in 6.2 mi SSW 11.5 mph - N/A   Overcast
4:20 PM 33.8 °F 24.8 °F 30.2 °F 87% 30.42 in 6.2 mi SSW 12.7 mph - N/A   Overcast
4:50 PM 33.8 °F 25.3 °F 30.2 °F 87% 30.42 in 6.2 mi SSW 11.5 mph - N/A   Overcast
5:00 PM 34 °F - 31 °F 82% 30.48 in 19 mi SSW 6.7 mph - -   Mostly Cloudy
5:20 PM 33.8 °F 27.0 °F 30.2 °F 87% 30.42 in 6.2 mi SSW 8.1 mph - N/A   Overcast
5:50 PM 33.8 °F 24.8 °F 30.2 °F 87% 30.42 in 6.2 mi SSW 12.7 mph - N/A   Mostly Cloudy
6:00 PM 34 °F - 30 °F 81% 30.48 in 11 mi SW 6.7 mph - -   Overcast
6:20 PM 33.8 °F 25.3 °F 30.2 °F 87% 30.42 in 6.2 mi SSW 11.5 mph - N/A   Mostly Cloudy
6:50 PM 33.8 °F 24.3 °F 30.2 °F 87% 30.42 in - SSW 13.8 mph - N/A   Clear
7:00 PM 34 °F - 30 °F 79% 30.48 in 14 mi SW 6.7 mph - -   Clear
7:20 PM 33.8 °F 24.3 °F 30.2 °F 87% 30.42 in 6.2 mi SSW 13.8 mph - N/A   Scattered Clouds
7:50 PM 33.8 °F 25.8 °F 30.2 °F 87% 30.42 in 6.2 mi SW 10.4 mph - N/A   Partly Cloudy
8:00 PM 33 °F - 30 °F 83% 30.50 in 10 mi WSW 6.7 mph - -  
8:20 PM 33.8 °F 25.3 °F 30.2 °F 87% 30.42 in 6.2 mi SW 11.5 mph - N/A   Unknown
8:50 PM 33.8 °F 24.8 °F 28.4 °F 81% 30.42 in 6.2 mi SW 12.7 mph - N/A   Unknown
9:00 PM 34 °F - 30 °F 79% 30.49 in 11 mi SW 6.7 mph - -  
9:20 PM 32.0 °F 22.5 °F 28.4 °F 87% 30.42 in 6.2 mi SSW 12.7 mph - N/A   Unknown
9:50 PM 32.0 °F 22.5 °F 28.4 °F 87% 30.42 in 6.2 mi SSW 12.7 mph - N/A   Unknown
10:20 PM 32.0 °F 22.1 °F 28.4 °F 87% 30.42 in 6.2 mi SSW 13.8 mph - N/A   Unknown
10:50 PM 33.8 °F 24.3 °F 28.4 °F 81% 30.42 in 6.2 mi SSW 13.8 mph - N/A   Unknown
11:00 PM 33 °F - 28 °F 77% 30.50 in 12 mi South 6.7 mph - -  
11:20 PM 33.8 °F 24.8 °F 28.4 °F 81% 30.42 in 6.2 mi SW 12.7 mph - N/A   Unknown
11:50 PM 33.8 °F 24.3 °F 28.4 °F 81% 30.42 in 6.2 mi SW 13.8 mph - N/A   Unknown